#timestamp,LO_Frequency,Hit,StdDev 
1584412635.5,286047034.0,P
1584412655.3,286047036.3,P
1584412675.1,286047034.5,P
1584412695.9,286047031.7,Y
1584412715.7,286047000.6,P
1584412735.6,286047000.5,N
1584412755.4,286047000.8,N
1584412775.2,286046999.9,N
1584412795.1,286047001.1,N
1584412796.0,286047001.1,N
1584412815.8,286047000.3,N
1584412835.6,286047000.4,N
1584412855.5,286047000.6,N
1584412875.3,286047000.6,N
1584412895.2,286047000.2,N
1584412915.9,286047002.8,N
1584412935.7,286046999.9,N
1584412955.6,286047001.8,N
1584412975.4,286047003.9,N
1584412995.2,286047001.3,N
1584413015.1,286047004.4,N
1584413016.0,286047004.4,N
1584413035.8,286047003.9,N
1584413055.7,286047004.4,N
1584413075.5,286047004.1,N
1584413095.3,286047004.1,N
1584413115.2,286047003.4,N
1584413135.0,286047003.0,N
1584413135.9,286047003.0,N
1584413155.8,286047002.9,N
1584413175.6,286047005.6,N
1584413195.4,286047004.9,N
1584413215.3,286047006.5,N
1584413235.1,286047008.5,N
1584413255.8,286047008.1,Y
1584413275.7,286047004.6,P
1584413295.5,286047004.6,P
1584413315.4,286047004.5,P
1584413335.2,286047007.3,Y
1584413355.0,286047004.3,P
1584413355.9,286047004.3,P
1584413375.8,286047003.5,P
1584413395.6,286047003.9,Y
1584413415.5,286046999.5,P
1584413435.3,286047000.7,N
1584413455.1,286047000.0,N
1584413475.9,286047000.2,N
1584413495.7,286046999.7,N
1584413515.5,286046999.9,N
1584413535.4,286047002.5,N
1584413555.2,286047000.0,N
1584413575.1,286046999.7,N
1584413576.0,286046999.7,N
1584413595.8,286047002.3,N
1584413615.6,286047002.4,N
1584413635.5,286047000.2,N
1584413655.3,286047002.3,N
1584413675.1,286047001.9,N
1584413695.9,286047001.4,N
1584413715.7,286047001.7,N
1584413735.6,286047001.8,N
1584413755.4,286047004.3,Y
1584413775.2,286047002.1,P
1584413795.1,286047002.3,P
1584413796.0,286047002.3,P
1584413815.8,286047002.5,Y
1584413835.6,286047002.8,P
1584413855.5,286047002.3,P
1584413875.3,286047003.9,P
1584413895.2,286047003.4,Y
1584413915.0,286047000.4,P
1584413915.9,286047000.4,N
1584413935.7,286046999.7,N
1584413955.6,286047002.3,N
1584413975.4,286047001.9,N
1584413995.3,286047001.6,N
